Regional Weather Roundup
Issued by NWS Green Bay, WI

Home | Current Version | Previous Version | Graphics & Text | Print | Product List | Glossary Off
Versions: 1 2 3 4 5 6 7 8 9 10 11 12 13 14 15 16 17 18 19 20 21 22 23 24 25 26 27 28 29 30 31 32 33 34 35 36 37 38 39 40 41 42 43 44 45 46 47 48 49 50

000
ASUS43 KGRB 061911
RWRGRB

NORTH-CENTRAL AND NORTHEAST WISCONSIN REGIONAL WEATHER ROUNDUP
NATIONAL WEATHER SERVICE GREEN BAY WI
100 PM CST SAT FEB 06 2016

WIZ005-009-010>012-018-019-062000-
NORTH CENTRAL WISCONSIN

CITY           SKY/WX    TMP DP  RH WIND       PRES   REMARKS
IRONWOOD       CLOUDY    30  21  69 S8        29.93F
MANITOWISH WTR CLOUDY    26  20  77 S10       29.96F
ARBOR VITAE    CLOUDY    29  22  73 S10       29.98F
EAGLE RIVER    CLOUDY    27  18  70 SW12      29.98F
LAND O LAKES   CLOUDY    28  19  69 SW7       29.97F
RHINELANDER    CLOUDY    27  19  72 SW8       30.00F
PHILLIPS       CLOUDY    28  21  75 S10       29.99F
ANTIGO         CLOUDY    26  21  82 SW12      30.03F
TOMAHAWK       CLOUDY    29  20  70 S3        30.02F
MERRILL        CLOUDY    29  22  75 SW9       30.05F
$$

WIZ013-073-062000-
NORTHEAST WISCONSIN

CITY           SKY/WX    TMP DP  RH WIND       PRES   REMARKS
IRON MOUNTAIN  CLOUDY    28  19  69 SW12      30.00F
MARINETTE      CLOUDY    28  21  74 W6        30.08F
OCONTO         CLOUDY    29  23  78 W13       30.09F
$$

WIZ017-030-035>037-045-062000-
CENTRAL WISCONSIN

CITY           SKY/WX    TMP DP  RH WIND       PRES   REMARKS
MEDFORD        CLOUDY    28  22  78 S9        30.03F
WAUSAU         CLOUDY    30  22  72 SW8       30.04F
MOSINEE        PTSUNNY   28  25  86 W9        30.07F
MARSHFIELD     CLOUDY    31  21  66 SW9       30.05F
WISC RAPIDS    CLOUDY    31  22  69 W12       30.10F
STEVENS POINT  CLOUDY    28  22  78 SW9       30.08F
WAUPACA        CLOUDY    32  24  73 SW7       30.10F
SHAWANO        CLOUDY    32  24  72 W7        30.09F
CLINTONVILLE   CLOUDY    30  23  74 W9        30.10F
WAUTOMA        CLOUDY    32  25  76 W12       30.11F
$$

WIZ038-039-048-051-062000-
FOX VALLEY

CITY           SKY/WX    TMP DP  RH WIND       PRES   REMARKS
NWS GREEN BAY  CLOUDY    29  24  82 W12       30.11F
APPLETON       CLOUDY    28  23  80 SW9       30.09F
OSHKOSH        CLOUDY    30  24  78 SW7       30.11F
FOND DU LAC    CLOUDY    31  24  75 SW8       30.12F
$$

WIZ022-050-052-062000-
EAST CENTRAL WISCONSIN

CITY           SKY/WX    TMP DP  RH WIND       PRES   REMARKS
EPHRAIM        CLOUDY    27  22  80 W8G17     30.06F
STURGEON BAY   CLOUDY    27  19  74 W14       30.11F
MANITOWOC      CLOUDY    32  25  75 W13G20    30.12F
SHEBOYGAN      CLOUDY    30  24  78 W14       30.12F
$$

LMZ563-521-522-541>543-062000-
LAKESHORE

STATION/POSITION TIME  TEMP    WIND        PRES    VSBY  WAVE
                       AIR SEA DIR/SP/G                  HT/PER
                 (UTC) (F)     (DEG/KT/KT) (MB)    (MI)  (FT/S)
SHEBOYGAN LKSHOR 1900   31     230/ 12/ 14 1021.1F
KEWAUNEE LKSHORE 1800   28     270/ 11/ 14 1019.1F
ALGOMA MARINA    1811          280/ 10/ 15   N/A
CHAMBERS ISLAND  1800   28     220/  7/ 12 1019.3F
MENOMINEE LKSHOR 1800   27     240/ 11     1018.4F
$$



USA.gov is the U.S. government's official web portal to all federal, state and local government web resources and services.